Погода в Нагорном

Россия / Челябинская область     54°32′26″N   61°17′39″E
темп.,
°C
ветер,
м/с
пор.,
м/с
влажн.,
%
обл.,
%
осадки,
мм/ч
давл.,
гПа
погр.,
м
12 апреля, пн
пн1223:00+3ююз4119112 0.0 1035204
02:00+2ююз499010 0.0 1035142
05:00+2юз35875 0.0 103569
08:00+5юз128250 0.0 103549
11:00+10в226890 0.0 1035240
14:00+14св345997 0.0 1035713
17:00+14ссв446976 0.0 1036833
20:00+9ссв4887100 0.0 1038380
13 апреля, вт
вт1323:00+8ссв3788100 0.0 1039265
02:00+6св3590100 0.0 1040100
05:00+4св22918 0.0 104132
08:00+5всв23855 0.0 1042142
11:00+9в23555 0.0 1042585
14:00+12юв33433 0.0 1040872
17:00+13ю23400 0.0 1039909
20:00+10ю32560 0.0 103819
14 апреля, ср
ср1423:00+8ю33665 0.0 103837
02:00+6ююз36775 0.0 103779
05:00+5юз358561 0.0 103666
08:00+7юз368114 0.0 1036153
11:00+12юз34585 0.0 1034443
14:00+16юз334926 0.0 1032779
17:00+17юз334628 0.0 1030911
20:00+13юз335657 0.0 102924
15 апреля, чт
чт1523:00+10юз336090 0.0 102938
02:00+8зюз336336 0.0 102828
05:00+7зюз33687 0.0 102730
08:00+8юз25675 0.0 1027120
11:00+14юз344111 0.0 1025426
14:00+18юз33306 0.0 1023822
17:00+19зюз23305 0.0 1021973
20:00+14юз22435 0.0 101911
16 апреля, пт
пт1623:00+12зюз22485 0.0 101911
02:00+10сз22568 0.0 101810
05:00+8ссз336861 0.0 101719
08:00+10с236356 0.0 101683
11:00+15ссз1243100 0.0 1014446
14:00+17зсз2237100 0.0 10121111
17:00+18з2433100 0.0 10101669
20:00+14зюз3350100 0.0 100926